Location: Al Mulaqqa?ah
(24.1833°N, 32.8833°E)
Time: 21:56:07
(UTC+00:00)

Cosmos 1805 - Pass Details

Date: 26 September 2021
Orbit: 523 x 529 km, 82.5° (Epoch: 28 October)

Event Time Altitude Azimuth Distance (km) Brightness Sun altitude
Rises 16:13:43 0° 161° (SSE) 2,649 6.6 -8.4°
Reaches altitude 10° 16:16:06 10° 148° (SSE) 1,762 5.6 -8.9°
Maximum altitude 16:19:19 25° 91° (E) 1,078 4.2 -9.7°
Drops below altitude 10° 16:22:32 10° 35° (NE) 1,765 5.6 -10.4°
Sets 16:24:56 0° 22° (NNE) 2,655 6.6 -10.9°
